Regional Weather Roundup
Issued by NWS

Home | Current Version | Previous Version | Graphics & Text | Print | Product List | Glossary On
Versions: 1 2 3 4 5 6 7 8 9 10 11 12 13 14 15 16 17 18 19 20 21 22 23 24 25 26 27 28 29 30 31 32 33 34 35 36 37 38 39 40 41 42 43 44 45 46 47 48 49 50
000
ASUS45 KBOU 040907
RWRCO

WEATHER ROUNDUP FOR COLORADO
NATIONAL WEATHER SERVICE DENVER/BOULDER CO
300 AM MDT TUE AUG 04 2015

NOTE: "FAIR" INDICATES FEW OR NO CLOUDS BELOW 12000 FEET WITH NO
SIGNIFICANT WEATHER AND/OR OBSTRUCTIONS TO VISIBILITY.

COZ001>005-013-030-031-041000-
...NORTHWEST COLORADO...

CITY           SKY/WX    TMP DP  RH WIND       PRES   REMARKS
CRAIG          PTCLDY    52  50  93 CALM      30.18F
HAYDEN         PTCLDY    54  48  82 SE6       30.20F
MEEKER         PTCLDY    50  46  86 CALM      30.20F
MOUNT WERNER   NOT AVBL
STEAMBOAT SPGS   N/A     53  51  95 E7        30.23S
WALDEN         CLOUDY    54  45  71 S16G23    30.27S
$$

COZ006>008-011-041000-
...WEST CENTRAL VALLEYS...

CITY           SKY/WX    TMP DP  RH WIND       PRES   REMARKS
GRAND JUNCTION PTCLDY    62  50  64 W3        30.10F
MONTROSE       CLOUDY    66  49  54 S7        30.20R
EAGLE          MOCLDY    54  46  76 E3        30.24R
RIFLE          MOCLDY    60  52  74 E7        30.14F
DELTA          RAIN      64  53  65 NE10      30.16S
NUCLA          CLOUDY    59  50  72 E8        30.25S
$$

COZ017>023-064>068-041000-
...SOUTHWEST COLORADO...

CITY           SKY/WX    TMP DP  RH WIND       PRES   REMARKS
DURANGO        MOCLDY    53  41  63 CALM      30.25R
CORTEZ         LGT RAIN  61  53  75 E13G25    30.18F
PAGOSA SPRINGS PTCLDY    47  45  92 CALM      30.32S
TELLURIDE      MOCLDY    51  42  71 CALM      30.45F
WOLF CREEK PAS NOT AVBL
$$

COZ009-010-012-014-032>034-037-058>063-041000-
...CENTRAL COLORADO...

CITY           SKY/WX    TMP DP  RH WIND       PRES   REMARKS
ASPEN          CLOUDY    54  45  71 N7        30.30R
BUENA VISTA    MOCLDY    49  46  86 W6        30.33R
COPPER MTN     PTCLDY    46  32  57 W20G35    30.54F
BERTHOUD PASS  FAIR      37  28  70 W28G39    30.54F
COTTONWOOD PAS TSTM      54  39  58 W24G51    30.43S
GUNNISON       MOCLDY    54  46  76 E6        30.37F
KREMMLING      CLEAR     43  37  81 CALM      30.27F
LEADVILLE      MOCLDY    52  36  54 VRB6      30.42S
MONARCH PASS   TSTM      41  37  87 MISG      30.68R
SALIDA         MOCLDY    54  50  85 CALM      30.37R
SUNLIGHT       CLOUDY    46  43  87 CALM      30.48S
WILKERSON PASS NOT AVBL
$$

COZ069>075-041000-
...SAN LUIS VALLEY/SANGRE DE CRISTO MOUNTAINS...

CITY           SKY/WX    TMP DP  RH WIND       PRES   REMARKS
ALAMOSA        CLEAR     49  47  93 CALM      30.30R
LA VETA PASS   CLEAR     46  41  81 MISG      30.45F
SAGUACHE       CLEAR     50  45  81 N8        30.33S THUNDER
$$

COZ035-036-038>040-041000-
...NORTHERN COLORADO FRONT RANGE...

CITY           SKY/WX    TMP DP  RH WIND       PRES   REMARKS
DENVER INTL AP PTCLDY    60  50  69 SW9       30.06S
DMNS CITY PARK   N/A     60  53  79 E8        30.06S
AURORA         PTCLDY    59  51  74 SW9       30.08F
FRONT RANGE AP NOT AVBL
ERIE MUNI ARPT CLEAR     57  53  86 CALM      30.05R
BOULDER MUN AP CLEAR     63  48  59 CALM      30.05F
CENTENNIAL     PTCLDY    62  49  62 SW10      30.09F
BROOMFIELD     CLEAR     61  50  67 W5        30.08F
FORT COLLINS   PTCLDY    61  52  72 SE5       30.05S
LONGMONT       PTCLDY    58  52  80 CALM      30.05F
$$

COZ041-046-047-076>085-087-088-041000-
...PIKES PEAK/PALMER DIVIDE AND SOUTHERN FOOTHILLS...

CITY           SKY/WX    TMP DP  RH WIND       PRES   REMARKS
COLO. SPRINGS  CLEAR     57  51  80 NW6       30.15F
A. F. ACADEMY  CLEAR     51  51  99 N8        30.16F
ELLICOTT       CLEAR    N/A N/A N/A CALM      30.12F
FALCON         CLEAR     56  48  75 W8        30.18F
FORT CARSON    CLEAR     54  53  97 NW6       30.11F
LIMON          CLEAR     51  50  96 NW3       30.07F
MONUMENT HILL  CLEAR     55  45  67 SW12      30.18F
TRINIDAD       CLEAR     57  54  89 SW10      30.15F
$$

COZ042>045-048>051-090-091-041000-
...NORTHEAST COLORADO...

CITY           SKY/WX    TMP DP  RH WIND       PRES   REMARKS
GREELEY ARPT   PTCLDY    57  52  82 CALM      30.03R
AKRON          PTCLDY    62  50  64 S7        30.02F
BURLINGTON     CLOUDY    64  60  87 S6        30.01F
WRAY           PTCLDY    63  53  70 CALM      29.98S
STERLING       PTCLDY    59  52  77 CALM      29.97F
HOLYOKE        PTCLDY    61  54  77 CALM      29.98F
FORT MORGAN    PTCLDY    57  49  75 SE3       30.01F
$$

COZ086-089-092>099-041000-
...SOUTHEAST COLORADO...

CITY           SKY/WX    TMP DP  RH WIND       PRES   REMARKS
PUEBLO         CLEAR     60  56  86 W7        30.06F
LA JUNTA       CLEAR     60  58  92 W12       30.02F
LAMAR          MOCLDY    63  61  93 W12       29.97R
SPRINGFIELD      N/A     59  57  93 SW3       30.01F
$$


USA.gov is the U.S. government's official web portal to all federal, state and local government web resources and services.